Find Starlink 32035

NORAD ID: 60107 Int'l Des: 2024-117 Owner: SPXS Country: US Constellation: starlink operational
LEOCIRCULAR

リアルタイム位置

3D地球を読み込み中...

Starlink 32035について

説明を読み込み中...

次回通過

Passes for default location (London). Set your location on the main map for personalized predictions.

高度履歴

Loading altitude history...

軌道要素

1 60107U 24117S 26127.18788595 .00000003 00000-0 12245-4 0 9999
2 60107 53.1597 125.3429 0001297 92.5338 267.5812 15.30192353105842
Epoch: May 7, 2026 • Age: 4 hours

現在のステータス

高度 475.5 km
速度 7.63 km/s
衛星直下点 22.79°N, 63.35°W
打ち上げ日 Jun 23, 2024
運用期間 1.8 years
タイプ internet

技術仕様

分類 Payload
質量 730.00 kg
乾燥質量 700.00 kg
総質量 730.00 kg
長さ 0.30 m
直径 4.10 m
スパン 29.00 m
形状 Box + pan
製造者 SPXS
バスタイプ Starlink V2M
フェーズステータス In Orbit
所有者/国 SPXS/US

Most Searched